Weather in Kachanovo

Russia / Pskov Oblast     57°27′45″N   27°45′52″E
temp.,
°C
wind,
m/s
gust,
m/s
humid.,
%
clouds,
%
prec.,
mm/h
press.,
hPa
HPBL,
m
1 august, sun
sun100:00+16ssw2780100 0.0 1005143
03:00+15s31081100 0.0 1004254
06:00+16ssw288723 0.1 1003306
09:00+20sw36642 0.1 1003690
12:00+24sw6104434 0.0 10032303
15:00+24wsw6104623 0.0 10042012
18:00+23wsw585099 0.0 10051929
21:00+20ssw3764100 0.0 1005292
2 august, mon
mon200:00+17wsw2878100 0.0 1006270
03:00+16ssw2590100 0.2 1005139
06:00+14ssw2498100 2.3 1005177
09:00+14ese1298100 2.9 1004109
12:00+15ene1398100 3.9 1002278
15:00+15nw1298100 6.8 1001178
18:00+14wnw3698100 5.3 1002285
21:00+15wsw269834 5.3 1002242
3 august, tue
tue300:00+14wsw2897100 0.1 1003225
03:00+12wsw389793 0.1 1004204
06:00+11wsw3119697 0.0 1004320
09:00+15wsw478424 0.0 1005521
12:00+18wsw566766 0.6 10061290
15:00+20w47577 2.1 10071416
18:00+20wnw57497 0.0 10081464
21:00+14wnw38678 0.0 1011238
4 august, wed
wed400:00+11w38780 0.0 1012147
03:00+10w368621 0.0 101492
06:00+10wsw268414 0.0 1015110
09:00+16sw2460100 0.0 1015376
12:00+19sw245092 0.0 10151068
15:00+16wsw116988 0.0 101667
18:00+21ssw244982 0.0 10151566
21:00+15s2589100 0.5 101590
5 august, thu
thu500:00+14sw3896100 1.4 1016276
03:00+12se2497100 5.3 1016101
06:00+12sse129663 0.0 101649
09:00+16sse118530 0.0 1016343
12:00+21e225519 0.0 10161350
15:00+22e324687 0.1 10151917
18:00+20se246292 0.0 1014249
21:00+16e268190 0.0 1014113